Regional Weather Roundup
Issued by NWS

Home | Current Version | Previous Version | Text Only | Print | Product List | Glossary On
Versions: 1 2 3 4 5 6 7 8 9 10 11 12 13 14 15 16 17 18 19 20 21 22 23 24 25 26 27 28 29 30
000
ASUS42 KTBW 301310
RWRFL
FLORIDA REGIONAL WEATHER ROUNDUP
NATIONAL WEATHER SERVICE TAMPA BAY RUSKIN FL
900 AM EDT THU OCT 30 2014

NOTE: "FAIR" INDICATES FEW OR NO CLOUDS BELOW 12,000 FEET WITH NO
SIGNIFICANT WEATHER AND/OR OBSTRUCTIONS TO VISIBILITY.


FLZ001>010-012>015-112-114-115-301400-
PANHANDLE FLORIDA

CITY           SKY/WX    TMP DP  RH WIND       PRES   REMARKS
PENSACOLA      MOSUNNY   61  51  70 N9        30.07R
PENSACOLA NAS  PTSUNNY   62  52  69 N12       30.06R
MILTON NAS     MOSUNNY   58  52  80 N10       30.07R
CRESTVIEW      SUNNY     59  52  77 N6        30.08R
DUKE FIELD     FAIR      59  53  79 N9        30.06R
VALPARAISO     MOSUNNY   60  52  76 N8        30.06R
MARY ESTHER    SUNNY     60  49  65 NE12      30.05R
TRI COUNTY     FAIR      60  50  69 N7        30.07R
PANAMA CITY    CLOUDY    62  52  69 N5        30.03R
TYNDALL AFB    PTSUNNY   64  55  72 NE8       30.03R
APALACHICOLA   CLOUDY    68  62  81 NE10      30.01R

STATION/POSITION SKY/WX   TEMP    WIND        PRES    WAVE   SWELL
                          AIR SEA DIR/SP/G            HT/PER HT/PER
                          (F)     (DEG/KT/KT) (MB)    (FT/S) (FT/S)
30.1N   87.6W              67 77   30/ 17/ 23 1016.8R   3/ 5
29.2N   88.2W              71 78   30/ 14/ 16 1017.4R   4/ 5   2/ 7
28.8N   86.0W              74 79   30/ 16/ 19 1014.9R   3/ 4
PANAMA CITY BEAC           62 77   20/  9/ 14 1016.7R
CAPE SAN BLAS    NOT AVBL
TOWER C                    68      20/ 16/ 18 1015.7R
28.5N   84.5W              78 80   50/  8/  8 1014.8R   1/ 4   2/ 4

$$
FLZ011-016>038-118-127-128-134-139-239-301400-
NORTH FLORIDA

CITY           SKY/WX    TMP DP  RH WIND       PRES   REMARKS
MARIANNA       PTSUNNY   61  46  57 N7        30.05R
TALLAHASSEE    MOSUNNY   63  47  55 N5        30.02R
PERRY          PTSUNNY   63  61  94 N5        30.01S
CROSS CITY       N/A     66  66 100 NE5       30.00R
LAKE CITY      CLOUDY    64  63  94 N8        30.00S
GAINESVILLE    FOG       64  64 100 CALM      30.00R VSB 1/4
MAYPORT NAS    MOSUNNY   68  64  87 VRB6      30.00R
JACKSONVILLE   MOSUNNY   65  64  97 N5        29.99R
JAX NAS        PTSUNNY   70  64  81 NW7       30.00R
JAX CRAIG      SUNNY     68  64  87 N6        30.00R
JAX CECIL      SUNNY     63  63 100 CALM      30.00R FOG
FERNANDINA BEA FAIR      70  68  94 NW3       29.98R
ST AUGUSTINE   MOSUNNY   68  66  93 VRB3      30.00R

STATION/POSITION SKY/WX   TEMP    WIND        PRES    WAVE   SWELL
                          AIR SEA DIR/SP/G            HT/PER HT/PER
                          (F)     (DEG/KT/KT) (MB)    (FT/S) (FT/S)
SHELL POINT                65     360/  9/ 13   N/A
KEATON BEACH               65      20/  7/ 10 1015.9R
CEDAR KEY                  71      10/  2/  3 1015.8R
FERNANDINA                 66 75  330/  7/  8 1015.0R
30.7N   81.3W                 76                N/A     2/ 3
MAYPORT                    67 76  310/  7/ 10   N/A
31.4N   80.9W              70 74  360/ 12/ 14 1014.9R   2/ 3
ST AUGUSTINE               68     290/  5/  6 1016.2R

$$
FLZ040-043>046-052-053-057-058-063-144-301400-
INTERIOR CENTRAL FLORIDA

CITY           SKY/WX    TMP DP  RH WIND       PRES   REMARKS
OCALA          MOSUNNY   63  61  94 CALM      30.00R
THE VILLAGES     N/A     66  66 100 CALM      29.90S
LEESBURG       PTSUNNY   71  65  81 NE3       30.00R
SANFORD        SUNNY     70  65  84 NW3       30.00R
ORLANDO EXEC   MOSUNNY   71  66  84 NW3       29.99S
ORLANDO INTL   MOSUNNY   71  67  87 CALM      29.99R
KISSIMMEE      SUNNY     72  66  83 CALM      29.99S
WINTER HAVEN   PTSUNNY   72  67  84 CALM      30.00R
LAKELAND       MOSUNNY   72  66  83 CALM      29.99R
BARTOW         MOSUNNY   64  64 100 CALM      30.00R
OKEECHOBEE       N/A    N/A N/A N/A MISG        N/A

$$
FLZ041-047-054-059-064-141-147-301400-
EAST CENTRAL FLORIDA

CITY           SKY/WX    TMP DP  RH WIND       PRES   REMARKS
ORMOND BEACH   SUNNY     64  63  94 CALM      29.99R
DAYTONA BEACH  MOSUNNY   70  66  87 W5        30.00R
DELAND         SUNNY     68  64  88 NW3       30.01R
NEW SMYRNA BEA SUNNY     68  64  88 W3        29.99S
JFK SPACE CTR  SUNNY     70  66  88 NW3       29.98R
TITUSVILLE     SUNNY     66  66 100 W5        29.99R
CAPE CANAVERAL SUNNY     72  67  84 W7        29.98R
PATRICK AFB    SUNNY     73  68  83 W5        29.98S
MELBOURNE      SUNNY     71  67  87 W3        29.98R
VERO BEACH     SUNNY     68  66  93 W5        29.98R
FT PIERCE      SUNNY     69  66  90 W5        29.98R
STUART         MOSUNNY   70  68  94 NW3       29.99R

STATION/POSITION SKY/WX   TEMP    WIND        PRES    WAVE   SWELL
                          AIR SEA DIR/SP/G            HT/PER HT/PER
                          (F)     (DEG/KT/KT) (MB)    (FT/S) (FT/S)
28.5N   80.2W              76 79  290/  8/ 10 1015.2R
28.9N   78.5W              78 81  340/  2/  4 1015.1R   4/ 7   3/ 7
TRIDENT PIER               73 78  270/  4/  5 1014.8R
28.4N   80.5W                 78                N/A     1/ 6
27.6N   80.2W                 79                N/A     1/ 7

$$
FLZ050-056-061-142-242-148-248-149-249-151-251-155-255-
160-260-301400-
WEST CENTRAL FLORIDA

CITY           SKY/WX    TMP DP  RH WIND       PRES   REMARKS
CRYSTAL RIVER  FAIR      64  63  94 CALM      30.00R
INVERNESS      CLOUDY    64  64 100 CALM      30.00S
BROOKSVILLE    PTSUNNY   67  64  90 CALM      30.00S
ZEPHYRHILLS    FAIR      63  63 100 CALM      30.00S
CLEARWATER     MOSUNNY   73  68  84 NE7       29.98R
TAMPA INTL     PTSUNNY   73  64  73 NE3       30.00R
TAMPA EXEC     MOSUNNY   70  66  88 CALM      30.00R
PLANT CITY     MOSUNNY   70 N/A N/A CALM      30.01R
MACDILL AFB    SUNNY     71  71 100 NE3       29.99R
ST PETERSBURG  PTSUNNY   75  68  78 NE3       29.96R
SARASOTA       PTSUNNY   71  66  84 E3        29.97R
VENICE           N/A     72  66  83 E5        29.99R

STATION/POSITION SKY/WX   TEMP    WIND        PRES    WAVE   SWELL
                          AIR SEA DIR/SP/G            HT/PER HT/PER
                          (F)     (DEG/KT/KT) (MB)    (FT/S) (FT/S)
CEDAR KEY                  71      10/  2/  3 1015.8R
28.5N   84.5W              78 80   50/  8/  8 1014.8R   1/ 4   2/ 4
27.3N   84.3W                 80                N/A     1/ 5
CLEARWATER BEACH           74 76   30/  4/  4 1015.0F
MIDDLE TAMPA BAY           72      80/  4/  4 1015.3R
VENICE                     72 78  100/  5/  6 1014.8R

$$
FLZ066-069-070-075>078-162-262-165-265-301400-
SOUTHWEST FLORIDA AND KEYS

CITY           SKY/WX    TMP DP  RH WIND       PRES   REMARKS
PUNTA GORDA    SUNNY     70  67  90 CALM      30.00R
FT MYERS       SUNNY     70  67  90 E3        29.97R
SOUTHWEST INTL SUNNY     67  66  97 E5        29.98R
NAPLES         SUNNY     72  68  87 CALM      29.97R
MARCO ISLAND   SUNNY     70  66  88 CALM      29.97S
MARATHON       SUNNY     79  70  74 NE5       29.97R
KEY WEST NAS   MOSUNNY   79  70  74 E7        29.98R
KEY WEST INTL  CLOUDY    80  73  79 NE6       29.98R

STATION/POSITION SKY/WX   TEMP    WIND        PRES    WAVE   SWELL
                          AIR SEA DIR/SP/G            HT/PER HT/PER
                          (F)     (DEG/KT/KT) (MB)    (FT/S) (FT/S)
VENICE                     72 78  100/  5/  6 1014.8R
NAPLES                     72 81  110/  4/  5 1015.4R
26.0N   85.6W              79 80  300/  8/ 10 1015.5R   2/ 6   2/ 6
DRY TORTUGAS               79      50/  6/  7 1014.6R
NW FL BAY                  77      50/  3/  4 1014.9R
SAND KEY                   77      70/  7/  8 1015.1R
SOMBRERO KEY               77      30/  7/  8 1015.8R
LONG KEY                   77 78   30/  5/  6 1015.4R
MOLASSES REEF              76 81  360/  7/  8 1015.1R

$$
FLZ067-068-071>074-168-172>174-301400-
SOUTHEAST FLORIDA

CITY           SKY/WX    TMP DP  RH WIND       PRES   REMARKS
W PALM BEACH   MOSUNNY   72  69  90 NW5       29.97R
FT LAUDERDALE  MOSUNNY   76  68  76 NW6       29.97R
POMPANO BEACH  SUNNY     77  67  71 NW6       29.97R
PEMBROKE PINES SUNNY     75  68  78 NW5       29.99R
OPA LOCKA      SUNNY     76  67  73 NW5       29.98R
MIAMI          MOSUNNY   77  67  71 NW5       29.98R
WEST KENDALL   SUNNY     77  70  79 CALM      29.98R
HOMESTEAD      SUNNY     74  67  78 N3        29.98R

STATION/POSITION SKY/WX   TEMP    WIND        PRES    WAVE   SWELL
                          AIR SEA DIR/SP/G            HT/PER HT/PER
                          (F)     (DEG/KT/KT) (MB)    (FT/S) (FT/S)
PORT EVERGLADES            75     300/  4/  6 1014.7
VIRGINIA KEY               78 78  300/  3/  5 1015.4R
LAKE WORTH                 73 81  310/  6/  8 1014.6R
FOWEY ROCKS                77 80  310/  8/  8 1015.2R
SETTLEMENT POINT           77     340/  5/  6 1015.2R

$$




USA.gov is the U.S. government's official web portal to all federal, state and local government web resources and services.